Snowfall_Accumulation
0.2 1.4 3.8 1.3 0.7 1.1 1.1 1.4 1.6 0.5 0.0 0.1 0.3 0.4 0.3 0.0 0.1 0.1 0.0 0.0 0.0 0.0 0.0 0.0 0.0 0.0 0.0 0.0 0.0 0.0 0.0 0.0 0.0 0.0 0.0 0.0 0.0 0.0 0.0 0.0 0.0 0.0 0.0 0.0
2.1 3.4 1.0 0.4 0.5 1.1 1.4 2.1 1.8 0.6 0.0 0.3 0.3 0.4 0.1 0.0 0.1 0.1 0.1 0.0 0.0 0.0 0.0 0.0 0.0 0.0 0.0 0.0 0.0 0.0 0.0 0.0 0.0 0.0 0.0 0.0 0.0 0.0 0.0 0.0 0.0 0.0 0.0 0.0
4.1 1.6 0.1 0.5 0.8 1.8 1.7 2.2 1.4 1.5 0.3 0.1 0.4 1.0 0.5 0.4 0.1 0.1 0.0 0.0 0.0 0.0 0.0 0.0 0.0 0.0 0.0 0.0 0.0 0.0 0.0 0.0 0.0 0.0 0.0 0.0 0.0 0.0 0.0 0.0 0.0 0.0 0.0 0.0
1.5 0.5 0.2 0.9 0.9 1.5 2.7 0.4 0.5 1.0 1.8 3.2 1.6 5.2 1.0 0.5 0.4 0.2 0.1 0.0 0.0 0.0 0.0 0.0 0.0 0.0 0.0 0.0 0.0 0.0 0.0 0.0 0.0 0.0 0.0 0.0 0.0 0.0 0.0 0.0 0.0 0.0 0.0 0.0
2.9 0.4 0.6 1.9 0.5 0.7 1.3 0.3 0.5 0.8 2.1 3.9 1.6 4.5 2.4 1.1 1.1 0.3 0.4 0.2 0.0 0.0 0.0 0.0 0.0 0.0 0.0 0.0 0.0 0.0 0.0 0.0 0.0 0.0 0.0 0.0 0.0 0.0 0.0 0.0 0.0 0.0 0.0 0.0
0.9 0.2 0.2 0.4 0.2 0.3 0.3 0.2 0.6 1.3 3.8 8.4 2.5 3.9 3.5 2.6 2.0 0.4 0.2 0.2 0.1 0.0 0.0 0.0 0.0 0.0 0.0 0.0 0.0 0.0 0.0 0.0 0.0 0.0 0.0 0.0 0.0 0.0 0.0 0.0 0.0 0.0 0.0 0.0
6.9 1.4 0.3 0.1 1.6 0.8 1.3 8.0 15.5 14.2 12.3 5.7 1.2 2.5 3.3 1.3 0.3 0.4 0.2 0.2 0.2 0.1 0.1 0.0 0.0 0.0 0.0 0.0 0.0 0.0 0.0 0.0 0.0 0.0 0.0 0.0 0.0 0.0 0.0 0.0 0.0 0.0 0.0 0.0
10.1 7.8 1.2 0.3 0.6 1.6 1.9 5.3 11.5 9.9 6.3 2.7 1.5 2.5 2.8 0.3 0.2 0.2 0.3 0.3 0.2 0.2 0.2 0.1 0.0 0.0 0.0 0.0 0.0 0.0 0.0 0.0 0.0 0.0 0.0 0.0 0.0 0.0 0.0 0.0 0.0 0.0 0.0 0.0
7.5 6.1 0.3 0.1 0.2 0.9 3.1 4.6 3.6 7.9 5.7 3.7 2.2 2.1 1.3 0.4 0.4 0.4 0.4 0.3 0.3 0.1 0.1 0.1 0.1 0.0 0.0 0.0 0.0 0.0 0.0 0.0 0.0 0.0 0.0 0.0 0.0 0.0 0.0 0.0 0.0 0.0 0.0 0.0
4.1 7.5 1.8 0.1 0.3 0.3 0.5 2.0 6.2 12.5 9.8 5.3 2.2 1.9 2.7 2.2 1.3 0.8 0.3 0.2 0.2 0.1 0.2 0.1 0.1 0.1 0.0 0.0 0.0 0.0 0.0 0.0 0.0 0.0 0.0 0.0 0.0 0.0 0.0 0.0 0.0 0.0 0.0 0.0
1.7 8.8 5.7 2.3 3.2 3.7 3.2 5.2 7.7 9.7 7.9 7.1 4.4 2.6 1.8 1.7 1.1 0.8 0.3 0.2 0.1 0.1 0.1 0.1 0.1 0.2 0.1 0.0 0.0 0.0 0.0 0.0 0.0 0.0 0.0 0.0 0.0 0.0 0.0 0.0 0.0 0.0 0.0 0.0
1.8 7.7 8.2 3.3 0.4 0.4 1.9 4.0 6.7 12.1 8.8 6.6 5.6 3.3 0.6 0.7 0.4 0.2 0.2 0.2 0.1 0.1 0.1 0.1 0.1 0.1 0.2 0.2 0.1 0.0 0.0 0.0 0.0 0.0 0.0 0.0 0.0 0.0 0.0 0.0 0.0 0.0 0.0 0.0
3.2 10.4 11.9 5.6 2.5 0.8 4.4 3.3 3.6 7.2 12.4 9.9 7.7 3.5 0.4 0.2 0.2 0.1 0.2 0.1 0.1 0.1 0.1 0.1 0.2 0.1 0.2 0.3 0.2 0.1 0.0 0.0 0.0 0.0 0.0 0.0 0.0 0.0 0.0 0.0 0.0 0.0 0.0 0.0
2.2 9.7 9.3 7.2 5.8 6.1 5.9 3.8 4.2 11.0 16.8 8.9 4.1 2.1 0.8 0.6 0.7 0.4 0.2 0.2 0.2 0.1 0.1 0.1 0.1 0.1 0.1 0.2 0.3 0.3 0.2 0.1 0.1 0.1 0.0 0.0 0.0 0.0 0.0 0.0 0.0 0.0 0.0 0.0
2.1 10.0 6.8 3.0 1.5 3.1 4.4 3.9 3.4 7.5 8.4 8.9 3.7 1.8 1.1 0.9 0.8 0.5 0.3 0.3 0.2 0.2 0.1 0.1 0.1 0.1 0.1 0.1 0.2 0.3 0.2 0.1 0.1 0.1 0.0 0.0 0.0 0.0 0.0 0.0 0.0 0.0 0.0 0.0
2.0 6.6 5.9 4.6 0.9 1.6 3.4 1.8 1.6 2.5 2.5 3.9 2.8 2.0 0.7 0.5 0.5 0.4 0.4 0.3 0.2 0.2 0.2 0.1 0.0 0.0 0.1 0.1 0.2 0.3 0.3 0.1 0.1 0.1 0.0 0.0 0.0 0.0 0.0 0.0 0.0 0.0 0.0 0.0
2.9 4.1 10.4 6.5 2.1 3.3 5.7 1.2 1.4 1.8 1.7 2.4 3.5 1.5 0.6 0.5 0.5 0.5 0.4 0.3 0.2 0.1 0.1 0.1 0.0 0.0 0.0 0.0 0.1 0.3 0.3 0.2 0.1 0.1 0.0 0.0 0.0 0.0 0.0 0.0 0.0 0.1 0.1 0.1
2.1 4.2 10.7 8.0 5.2 7.0 1.9 0.6 0.6 1.1 1.5 1.3 1.1 0.8 0.5 0.5 0.5 0.4 0.4 0.3 0.2 0.2 0.1 0.1 0.1 0.1 0.0 0.0 0.1 0.2 0.4 0.3 0.2 0.2 0.2 0.0 0.0 0.0 0.2 0.1 0.4 0.5 0.3 0.4
1.0 3.1 9.9 9.9 7.1 4.0 0.8 0.4 0.6 1.2 2.0 1.2 1.1 0.6 0.5 0.4 0.3 0.3 0.3 0.3 0.3 0.2 0.1 0.0 0.1 0.0 0.0 0.0 0.1 0.1 0.3 0.4 0.3 0.3 0.3 0.2 0.1 0.2 0.3 0.4 0.4 0.8 1.1 1.3
1.0 2.5 8.5 10.4 8.7 4.1 1.9 0.6 0.4 0.9 2.3 1.2 0.7 0.6 0.6 0.6 1.1 0.8 0.4 0.3 0.2 0.2 0.1 0.1 0.0 0.0 0.0 0.1 0.1 0.1 0.6 0.9 0.6 0.5 0.7 0.6 0.5 0.8 1.1 1.1 1.2 1.0 1.2 1.4
3.0 6.0 9.4 8.6 8.2 3.2 1.7 0.7 0.7 2.8 5.1 1.2 0.8 0.8 0.7 1.3 1.2 0.7 0.4 0.3 0.3 0.3 0.2 0.1 0.1 0.1 0.2 0.1 0.2 0.4 0.5 1.1 1.3 1.1 1.0 1.0 1.3 1.2 1.6 1.3 1.0 1.1 1.1 1.0
3.1 4.8 5.6 6.1 8.4 5.1 1.8 1.3 2.5 3.1 1.4 0.9 0.8 0.7 0.7 0.7 0.5 0.4 0.5 0.5 0.5 0.4 0.3 0.3 0.4 0.5 0.4 0.7 1.3 1.7 1.8 2.0 1.8 1.9 2.3 2.3 1.6 1.4 1.5 1.1 1.1 1.1 0.9 0.9
3.1 4.1 4.4 4.9 5.0 3.4 2.1 2.0 1.7 1.1 1.0 0.7 0.7 0.6 0.6 0.7 0.6 0.5 0.5 0.4 0.5 0.5 0.5 0.5 0.5 0.7 0.7 0.9 1.2 1.4 1.7 1.1 1.9 2.3 2.1 1.7 1.2 0.8 0.8 0.8 0.9 0.9 0.7 0.7
2.5 2.1 3.1 4.2 3.7 2.7 2.2 1.6 1.0 0.8 0.9 0.8 0.6 0.6 0.6 0.6 0.5 0.5 0.5 0.5 0.5 0.6 0.5 0.6 0.8 0.8 0.8 0.7 0.8 1.1 1.4 1.2 1.2 1.6 1.6 1.5 1.3 0.9 0.7 0.5 0.4 0.4 0.5 0.6
2.7 2.5 3.2 3.6 3.0 2.3 2.0 1.6 1.2 0.9 0.8 0.7 0.6 0.5 0.5 0.6 0.6 0.5 0.5 0.5 0.5 0.5 0.5 0.5 0.6 0.7 0.7 0.7 0.8 0.8 0.8 0.9 1.1 1.1 1.1 0.9 0.7 0.7 0.7 0.5 0.5 0.4 0.2 0.4
2.2 2.6 3.4 3.7 2.6 2.6 2.3 1.6 1.0 0.8 0.9 0.7 0.7 0.6 0.5 0.5 0.6 0.5 0.5 0.5 0.5 0.6 0.5 0.5 0.5 0.6 0.8 0.7 0.6 0.4 0.4 0.5 0.8 0.9 0.9 0.9 1.0 0.8 0.9 0.7 0.7 0.2 0.2 0.2